[[{"header":{"parameterUnit":"m.s-1","parameterCategory":1,"la1":30.2991,"la2":30.254,"lo1":-89.0895,"lo2":-89.0444,"dy":0.0017,"dx":0.0017,"nx":28,"ny":28,"refTime":"2024-10-17T09:00:00:Z","depth":0,"parameterNumber":2,"parameterNumberName":"U-component_of_WINDS"},"data":[0,0,0,0,0,0,0,0,0,0,0,0,0,0,0,0,0,0,0,0,0,0,0,0,0,0,0,0,0,0,0,0,0,0,0,0,0,0,0,0,0,0,0,0,0,0,0,0,0,0,0,0,0,0,0,0,0,0,-5.5192,-5.5192,0,-5.5185,-5.5185,-5.5185,-5.5057,-5.5053,-5.505,-5.5047,-5.504,-5.5043,-5.5046,0,0,0,0,0,0,0,0,0,0,0,0,0,-5.5097,-5.5099,-5.5192,-5.5192,-5.5192,-5.5185,-5.5185,-5.5185,-5.5057,-5.5053,-5.5049,-5.5045,-5.5039,-5.5043,-5.5046,0,0,0,0,0,0,0,0,0,0,0,0,0,-5.5119,-5.51,-5.5192,-5.5128,-5.5122,-5.5185,-5.5185,-5.5185,-5.5058,-5.5053,-5.5048,-5.5043,-5.5038,-5.5042,-5.5047,-5.5172,0,0,-5.506,-5.5062,0,0,0,0,0,0,0,0,-5.5118,-5.5123,-5.5137,-5.5132,-5.5126,-5.5117,-5.5149,-5.5181,-5.5059,-5.5082,-5.5047,-5.5041,-5.507,-5.5071,-5.5081,-5.5172,-5.5171,-5.506,-5.5063,-5.5065,-5.5066,0,0,0,0,0,0,0,-5.5117,-5.5122,-5.5189,-5.5138,-5.5131,-5.5099,-5.5097,-5.5154,-5.5104,-5.508,-5.507,-5.5071,-5.5066,-5.5077,-5.508,-5.5171,-5.506,-5.5064,-5.5067,-5.5068,-5.5366,-5.5371,0,0,0,0,0,0,-5.5124,-5.5122,-5.519,-5.5189,-5.511,-5.5105,-5.5102,-5.5125,-5.5103,-5.5095,-5.5076,-5.5065,-5.5072,-5.5075,-5.5079,-5.5224,-5.5065,-5.5069,-5.5071,-5.5361,-5.5367,-5.5373,0,0,0,0,0,0,-5.5122,-5.5131,-5.519,-5.5153,-5.5158,-5.5112,-5.5138,-5.5127,-5.5138,-5.5099,-5.509,-5.5096,-5.5068,-5.5073,-5.515,-5.5222,-5.5071,-5.5075,-5.5354,-5.5363,-5.537,-5.5516,0,0,0,0,0,0,-5.512,-5.5131,-5.5178,-5.5155,-5.5161,-5.5261,-5.5142,-5.513,-5.5146,-5.5132,-5.5116,-5.5109,-5.5065,-5.5144,-5.5154,-5.5225,-5.5078,-5.5348,-5.5358,-5.5367,-5.5505,-5.5528,-5.5548,0,0,0,0,0,-5.5117,-5.5219,-5.5181,-5.519,-5.5218,-5.5265,-5.5269,-5.5215,-5.5152,-5.5199,-5.5174,-5.5109,-5.5213,-5.5153,-5.5163,-5.5237,-5.5343,-5.5355,-5.5367,-5.5495,-5.5524,-5.5548,0,0,0,0,0,0,-5.5252,-5.5215,-5.5172,-5.527,-5.5272,-5.5244,-5.5301,-5.5247,-5.5267,-5.5254,-5.5187,-5.5185,-5.5273,-5.5262,-5.5196,-5.5358,-5.5267,-5.5281,-5.5361,-5.5388,-5.5409,-5.5409,-5.5082,0,0,0,0,0,-5.5293,-5.5334,-5.53,-5.539,-5.5393,-5.5348,-5.5366,-5.5325,-5.5324,-5.5324,-5.5305,-5.5308,-5.5341,-5.5364,-5.5392,-5.5503,-5.5498,-5.5559,-5.5581,-5.5599,-5.5612,-5.5671,-5.5698,-5.5412,-5.5412,-5.5412,0,0,-5.5378,-5.5363,-5.5393,-5.5417,-5.5413,-5.5458,-5.5349,-5.54,-5.5433,-5.5332,-5.5404,-5.5391,-5.5389,-5.5484,-5.5525,-5.5478,-5.569,-5.5614,-5.5629,-5.5632,-5.5686,-5.5713,-5.5737,-5.542,-5.5419,-5.5417,0,0,-5.5555,-5.5549,-5.5623,-5.5622,-5.5618,-5.5588,-5.5606,-5.5587,-5.5574,-5.5645,-5.557,-5.5609,-5.5667,-5.5669,-5.5677,-5.5859,-5.58,-5.587,-5.5983,-5.6042,-5.6064,-5.6084,-5.6148,-5.6172,-5.5883,-5.5884,-5.5884,0,-5.5661,-5.5725,-5.5668,-5.5725,-5.5737,-5.5649,-5.5724,-5.5726,-5.5732,-5.5744,-5.5691,-5.5763,-5.5756,-5.585,-5.5895,-5.5905,-5.5924,-5.5871,-5.6065,-5.6085,-5.6102,-5.6163,-5.6187,-5.5892,-5.5891,-5.589,-5.589,0,-5.5856,-5.5902,-5.5963,-5.5971,-5.5991,-5.6057,-5.6009,-5.6037,-5.5995,-5.597,-5.6044,-5.6032,-5.6057,-5.6077,-5.6036,-5.6166,-5.6138,-5.6077,-5.5984,-5.6139,-5.6195,-5.6218,-5.5905,-5.5901,-5.5899,-5.5897,0,0,-5.6116,-5.6093,-5.6116,-5.6119,-5.611,-5.6145,-5.6208,-5.6232,-5.6256,-5.6265,-5.6316,-5.6368,-5.6312,-5.6322,-5.6281,-5.6333,-5.6477,-5.6265,-5.6264,-5.6305,-5.662,-5.6666,-5.6693,-5.6439,-5.6443,-5.6447,-5.662,0,-5.6287,-5.6392,-5.6343,-5.6453,-5.6495,-5.6413,-5.6468,-5.6469,-5.6448,-5.6481,-5.6458,-5.6496,-5.642,-5.6425,-5.6472,-5.645,-5.654,-5.6437,-5.6486,-5.6488,-5.6488,-5.6723,-5.677,-5.6934,-5.6642,-5.6646,-5.6648,0,-5.65,-5.6517,-5.6633,-5.6617,-5.6633,-5.6683,-5.6701,-5.6734,-5.6734,-5.6716,-5.6728,-5.6676,-5.6737,-5.6647,-5.673,-5.6661,-5.6679,-5.6671,-5.6676,-5.6678,-5.6577,-5.673,-5.6985,-5.701,-5.6682,-5.668,-5.6677,0,-5.6678,-5.673,-5.6806,-5.6811,-5.6795,-5.6832,-5.6827,-5.6822,-5.6841,-5.6858,-5.6869,-5.6893,-5.6907,-5.6927,-5.6883,-5.6821,-5.6973,-5.6879,-5.696,-5.6961,-5.6994,-5.6992,-5.7255,-5.7008,-5.7007,-5.7007,-5.7006,0,-5.6873,-5.6946,-5.6885,-5.6932,-5.7012,-5.6956,-5.7037,-5.7023,-5.702,-5.7063,-5.6994,-5.7036,-5.6977,-5.7013,-5.698,-5.7054,-5.7061,-5.7048,-5.7038,-5.7053,-5.7055,-5.7063,-5.705,-5.7013,-5.7012,-5.7011,-5.7009,0,-5.7084,-5.7046,-5.7123,-5.7102,-5.7099,-5.7159,-5.7141,-5.7184,-5.7159,-5.7214,-5.7224,-5.7186,-5.7225,-5.7184,-5.7221,-5.7198,-5.7299,-5.7273,-5.7299,-5.7291,-5.7374,-5.7367,-5.765,-5.7685,-5.7416,-5.7419,-5.7421,0,-5.721,-5.7265,-5.7251,-5.7274,-5.7274,-5.7313,-5.7332,-5.7279,-5.7301,-5.7307,-5.7349,-5.7383,-5.7407,-5.7474,-5.745,-5.7478,-5.7451,-5.7549,-5.7455,-5.7469,-5.7452,-5.7449,-5.7454,-5.7568,-5.7571,-5.7573,-5.7575,0,-5.7439,-5.7418,-5.7447,-5.7471,-5.7495,-5.7511,-5.7522,-5.7546,-5.7491,-5.752,-5.756,-5.7579,-5.7617,-5.7651,-5.7673,-5.7668,-5.7614,-5.7606,-5.7626,-5.7641,-5.7654,-5.7648,-5.735,-5.7599,-5.7597,-5.7595,-5.7594,-5.7593,-5.761,-5.7655,-5.7653,-5.7688,-5.7691,-5.7703,-5.7743,-5.7724,-5.7756,-5.7782,-5.775,-5.7799,-5.7799,-5.7822,-5.7824,-5.7862,-5.7821,-5.785,-5.7857,-5.7865,-5.7877,-5.765,-5.7866,-5.7865,-5.7865,-5.7864,-5.7864,0,-5.7834,-5.7829,-5.7863,-5.788,-5.7909,-5.7856,-5.7866,-5.7893,-5.7937,-5.7942,-5.7967,-5.8014,-5.8047,-5.8027,-5.8056,-5.809,-5.8066,-5.81,-5.8096,-5.8096,-5.7913,-5.7892,-5.8119,-5.8119,-5.8119,-5.8119,-5.8119,-5.8119,-5.7954,-5.8028,-5.8008,-5.8083,-5.8077,-5.8124,-5.8135,-5.8146,-5.8149,-5.8204,-5.8232,-5.8219,-5.8214,-5.8242,-5.8271,-5.8264,-5.8278,-5.8321,-5.8305,-5.8134,-5.8109,-5.8085,-5.8065,-5.8324,-5.8325,-5.8484,-5.8486,-5.8487]},{"header":{"parameterUnit":"m.s-1","parameterCategory":1,"la1":30.2991,"la2":30.254,"lo1":-89.0895,"lo2":-89.0444,"dy":0.0017,"dx":0.0017,"nx":28,"ny":28,"refTime":"2024-10-17T09:00:00:Z","depth":0,"parameterNumber":3,"parameterNumberName":"V-component_of_WINDS"},"data":[0,0,0,0,0,0,0,0,0,0,0,0,0,0,0,0,0,0,0,0,0,0,0,0,0,0,0,0,0,0,0,0,0,0,0,0,0,0,0,0,0,0,0,0,0,0,0,0,0,0,0,0,0,0,0,0,0,0,-0.9931,-0.9931,0,-0.9917,-0.9917,-0.9917,-0.9848,-0.9846,-0.9844,-0.9843,-0.983,-0.9831,-0.9832,0,0,0,0,0,0,0,0,0,0,0,0,0,-0.99,-0.9901,-0.9931,-0.9931,-0.9931,-0.9917,-0.9917,-0.9917,-0.9848,-0.9846,-0.9844,-0.9842,-0.983,-0.9831,-0.9832,0,0,0,0,0,0,0,0,0,0,0,0,0,-0.9902,-0.9901,-0.9931,-0.9895,-0.9891,-0.9917,-0.9917,-0.9917,-0.9848,-0.9846,-0.9843,-0.9841,-0.9829,-0.9831,-0.9833,-0.9893,0,0,-0.9838,-0.9839,0,0,0,0,0,0,0,0,-0.9902,-0.9904,-0.99,-0.9897,-0.9894,-0.9881,-0.9901,-0.9909,-0.9849,-0.9865,-0.9843,-0.984,-0.9849,-0.9849,-0.9852,-0.9892,-0.9891,-0.9838,-0.9839,-0.984,-0.984,0,0,0,0,0,0,0,-0.9902,-0.9904,-0.9926,-0.99,-0.9896,-0.9879,-0.9877,-0.9902,-0.9871,-0.9863,-0.9858,-0.9857,-0.9847,-0.985,-0.9851,-0.9891,-0.9838,-0.984,-0.9841,-0.9841,-0.9979,-0.9981,0,0,0,0,0,0,-0.9907,-0.9904,-0.9926,-0.9925,-0.9892,-0.9882,-0.9879,-0.9888,-0.987,-0.9865,-0.9859,-0.9854,-0.9849,-0.9849,-0.985,-0.9919,-0.984,-0.9842,-0.9843,-0.9976,-0.998,-0.9982,0,0,0,0,0,0,-0.9907,-0.991,-0.9927,-0.9913,-0.9914,-0.9885,-0.9895,-0.9889,-0.9892,-0.9868,-0.9862,-0.9869,-0.9847,-0.9848,-0.9882,-0.9917,-0.9842,-0.9844,-0.9973,-0.9977,-0.9981,-1.0057,0,0,0,0,0,0,-0.9906,-0.991,-0.9932,-0.9914,-0.9915,-0.9959,-0.9897,-0.989,-0.9895,-0.9888,-0.9875,-0.987,-0.9845,-0.988,-0.9884,-0.9918,-0.9845,-0.997,-0.9975,-0.998,-1.0051,-1.0063,-1.0073,0,0,0,0,0,-0.9905,-0.9955,-0.9934,-0.9937,-0.9942,-0.9961,-0.9961,-0.9931,-0.9898,-0.9921,-0.9905,-0.9871,-0.9913,-0.9884,-0.9888,-0.9924,-0.9968,-0.9974,-0.9979,-1.0046,-1.006,-1.0073,0,0,0,0,0,0,-0.9979,-0.9952,-0.9928,-0.9973,-0.997,-0.9949,-0.9976,-0.9947,-0.9953,-0.9946,-0.9908,-0.9906,-0.9946,-0.9938,-0.9906,-0.998,-0.9935,-0.9941,-0.9984,-0.9997,-1.0008,-1.0009,-0.9847,0,0,0,0,0,-1.0,-1.0017,-0.9992,-1.0035,-1.0034,-1.0006,-1.0013,-0.9989,-0.9984,-0.9983,-0.9969,-0.9966,-0.9978,-0.9987,-0.9998,-1.005,-1.0045,-1.0076,-1.0087,-1.0096,-1.0102,-1.0128,-1.0142,-1.0002,-1.0001,-1.0001,0,0,-1.0044,-1.0032,-1.0045,-1.0049,-1.0044,-1.0062,-1.0005,-1.0027,-1.004,-0.9986,-1.0017,-1.0007,-1.0001,-1.0045,-1.0063,-1.0039,-1.014,-1.0103,-1.0111,-1.0112,-1.0136,-1.0149,-1.0161,-1.0005,-1.0005,-1.0004,0,0,-1.0134,-1.0127,-1.0161,-1.0156,-1.0148,-1.0129,-1.0137,-1.012,-1.0112,-1.0142,-1.0102,-1.0117,-1.014,-1.0137,-1.0138,-1.0227,-1.0195,-1.0231,-1.0288,-1.0314,-1.0325,-1.0335,-1.0366,-1.0377,-1.0238,-1.0238,-1.0238,0,-1.0191,-1.0216,-1.0182,-1.0206,-1.0209,-1.016,-1.0194,-1.0191,-1.0188,-1.0191,-1.0165,-1.0191,-1.0184,-1.0225,-1.0247,-1.025,-1.0258,-1.0232,-1.0326,-1.0335,-1.0344,-1.0373,-1.0385,-1.0242,-1.0242,-1.0241,-1.0241,0,-1.0286,-1.0304,-1.0332,-1.0329,-1.0335,-1.0364,-1.0334,-1.0345,-1.0321,-1.0305,-1.0336,-1.0325,-1.0332,-1.034,-1.0318,-1.0379,-1.0364,-1.0333,-1.0286,-1.0362,-1.0389,-1.04,-1.0248,-1.0247,-1.0246,-1.0244,0,0,-1.0422,-1.0398,-1.0409,-1.0406,-1.0394,-1.0407,-1.0434,-1.044,-1.0449,-1.0449,-1.047,-1.049,-1.046,-1.0462,-1.0439,-1.0462,-1.0531,-1.0427,-1.0426,-1.0446,-1.0597,-1.0621,-1.0634,-1.0511,-1.0513,-1.0514,-1.0597,0,-1.0507,-1.0551,-1.052,-1.0569,-1.0585,-1.0539,-1.0562,-1.0557,-1.0543,-1.0555,-1.0539,-1.0553,-1.0513,-1.0514,-1.0534,-1.0519,-1.0561,-1.0512,-1.053,-1.0531,-1.0533,-1.0648,-1.0673,-1.0752,-1.0608,-1.061,-1.0611,0,-1.0613,-1.0615,-1.0665,-1.0648,-1.0654,-1.0676,-1.0678,-1.069,-1.0683,-1.0671,-1.0673,-1.0643,-1.0669,-1.0623,-1.0657,-1.0625,-1.063,-1.0624,-1.0626,-1.0626,-1.0575,-1.0651,-1.0776,-1.0788,-1.0627,-1.0626,-1.0625,0,-1.0706,-1.0722,-1.0754,-1.0753,-1.0734,-1.075,-1.0744,-1.0734,-1.0739,-1.0742,-1.0745,-1.0751,-1.0754,-1.076,-1.0732,-1.0702,-1.077,-1.0722,-1.0761,-1.0761,-1.0777,-1.0776,-1.0905,-1.0782,-1.0782,-1.0781,-1.0781,0,-1.0804,-1.0836,-1.0795,-1.0815,-1.0849,-1.0814,-1.085,-1.0838,-1.0831,-1.0847,-1.0808,-1.0825,-1.0788,-1.0801,-1.078,-1.0811,-1.0814,-1.0804,-1.0798,-1.0807,-1.0809,-1.081,-1.0804,-1.0784,-1.0784,-1.0783,-1.0783,0,-1.0914,-1.0887,-1.0919,-1.0898,-1.0894,-1.092,-1.0903,-1.092,-1.0903,-1.0924,-1.0928,-1.0901,-1.0914,-1.0887,-1.0897,-1.0883,-1.0927,-1.0913,-1.0929,-1.0924,-1.0964,-1.096,-1.1098,-1.1113,-1.0982,-1.0983,-1.0984,0,-1.0977,-1.1001,-1.0983,-1.099,-1.0985,-1.0999,-1.1004,-1.097,-1.0977,-1.0971,-1.0989,-1.0999,-1.1005,-1.1028,-1.101,-1.1017,-1.1002,-1.105,-1.1003,-1.1011,-1.1002,-1.1,-1.1002,-1.1059,-1.1061,-1.1062,-1.1063,0,-1.1093,-1.1079,-1.1087,-1.109,-1.1097,-1.1098,-1.1097,-1.1106,-1.107,-1.108,-1.1092,-1.1097,-1.1107,-1.1117,-1.112,-1.1113,-1.1082,-1.1078,-1.1087,-1.1096,-1.1104,-1.11,-1.0954,-1.1075,-1.1074,-1.1073,-1.1072,-1.1072,-1.1181,-1.12,-1.1189,-1.12,-1.1195,-1.1194,-1.1209,-1.1193,-1.1203,-1.1207,-1.1187,-1.1204,-1.1197,-1.1197,-1.1194,-1.1207,-1.1186,-1.1199,-1.1202,-1.1206,-1.1212,-1.1103,-1.1207,-1.1207,-1.1207,-1.1206,-1.1206,0,-1.1294,-1.1285,-1.1295,-1.1293,-1.1302,-1.1271,-1.1268,-1.1277,-1.1292,-1.1287,-1.1293,-1.1308,-1.1317,-1.13,-1.1306,-1.132,-1.1306,-1.1323,-1.1321,-1.132,-1.1231,-1.1222,-1.1334,-1.1334,-1.1334,-1.1334,-1.1334,-1.1334,-1.1354,-1.1383,-1.1368,-1.1394,-1.1385,-1.14,-1.1401,-1.1401,-1.1396,-1.1414,-1.1421,-1.1409,-1.1399,-1.1405,-1.1412,-1.1407,-1.1411,-1.1432,-1.1422,-1.1339,-1.1326,-1.1315,-1.1306,-1.1434,-1.1434,-1.151,-1.1511,-1.1511]}]]